{"data":{"norad_id":62389,"intl_designator":"2024-247N","name":"ICEYE-X47","alt_names":[],"object_type":"PAYLOAD","status":"ACTIVE","operator":null,"country":"FIN","launch_date":"2024-12-21","launch_site_code":"AFWTR","launch_vehicle":null,"mission":null,"orbit_class":"UNKNOWN","rcs_meters":null,"size_class":null,"mass_kg":null,"dimensions":null,"purposes":[],"wikipedia_slug":null,"has_3d_model":false,"image_url":null,"decayed_at":null,"tle_current":{"epoch":"2026-05-24T23:20:18.337344Z","epoch_age_seconds":76721,"freshness":"FRESH","line1":"1 62389U 24247N   26144.97243446  .00002015  00000+0  12634-3 0  9999","line2":"2 62389  44.9966 120.9592 0000132 355.6490   4.4386 15.13036859 78667","mean_motion":15.13036859,"eccentricity":1.32e-5,"inclination_deg":44.9966,"raan_deg":120.9592,"arg_perigee_deg":355.649,"mean_anomaly_deg":4.4386,"bstar":0.00012634,"rev_number":7866,"period_min":95.172830155091,"perigee_km":526.85378422442,"apogee_km":527.0360783874,"semimajor_km":6905.0819313059,"source":"CELESTRAK","updated_at":"2026-05-25T13:38:02.947293Z"}}}